This is the latest recevied weather packets stored in our database for station/object KN6WGU. If no packets are shown the sender has not sent any weather packets the latest 1 day(s).
| Time | Temp. | Humidity | Pressure | Rain* | Wind** | Luminosity | Snow |
|---|---|---|---|---|---|---|---|
| 1778029121 | 9.44° C | 99% | 1001.9 hPa | 0 mm | 0 m/s | 0 W/m² | - |
| 1778028818 | 9.44° C | 99% | 1001.8 hPa | 1.27 mm | 0 m/s | 0 W/m² | - |
| 1778028513 | 9.44° C | 99% | 1002 hPa | 1.27 mm | 0 m/s | 0 W/m² | - |
| 1778028212 | 9.44° C | 99% | 1001.9 hPa | 1.78 mm | 0 m/s | 0 W/m² | - |
| 1778027907 | 9.44° C | 99% | 1001.9 hPa | 3.05 mm | 0 m/s | 0 W/m² | - |
| 1778027604 | 9.44° C | 99% | 1002 hPa | 3.05 mm | 0 m/s | 0 W/m² | - |
| 1778027300 | 9.44° C | 99% | 1001.8 hPa | 1.78 mm | 0 m/s | 0 W/m² | - |
| 1778026997 | 9.44° C | 99% | 1001.9 hPa | 3.05 mm | 0 m/s | 0 W/m² | - |
| 1778026692 | 9.44° C | 99% | 1001.7 hPa | 3.05 mm | 0 m/s | 1 W/m² | - |
| 1778026390 | 9.44° C | 99% | 1001.8 hPa | 3.05 mm | 0.45 m/s, 269° | 1 W/m² | - |
| 1778026087 | 10° C | 99% | 1001.5 hPa | 3.05 mm | 0 m/s | 2 W/m² | - |
| 1778025785 | 10° C | 99% | 1001.6 hPa | 4.83 mm | 0 m/s | 1 W/m² | - |
| 1778025481 | 10° C | 99% | 1001.7 hPa | 4.83 mm | 0 m/s | 1 W/m² | - |
| 1778025179 | 10° C | 99% | 1001.4 hPa | 4.83 mm | 0 m/s | 2 W/m² | - |
| 1778024875 | 10° C | 99% | 1001.3 hPa | 3.05 mm | 0 m/s | 2 W/m² | - |
| 1778024573 | 10° C | 99% | 1001.3 hPa | 3.05 mm | 0 m/s | 6 W/m² | - |
| 1778024270 | 10° C | 99% | 1001.3 hPa | 1.27 mm | 0 m/s | 7 W/m² | - |
| 1778023968 | 10° C | 99% | 1001.4 hPa | 1.78 mm | 0 m/s | 6 W/m² | - |
| 1778023665 | 10° C | 99% | 1001.3 hPa | 1.78 mm | 0 m/s | 7 W/m² | - |
| 1778023362 | 10° C | 99% | 1001.5 hPa | 0 mm | 0 m/s | 8 W/m² | - |
| 1778023058 | 10° C | 99% | 1001.4 hPa | 0 mm | 0.45 m/s, 95° | 16 W/m² | - |
| 1778022757 | 10° C | 99% | 1001.5 hPa | 1.27 mm | 0 m/s | 32 W/m² | - |
| 1778022455 | 10° C | 99% | 1001.5 hPa | 3.05 mm | 0 m/s | 26 W/m² | - |
| 1778022151 | 10° C | 99% | 1001.8 hPa | 6.1 mm | 0 m/s | 18 W/m² | - |
| 1778021848 | 10° C | 98% | 1002 hPa | 8.89 mm | 0.45 m/s, 70° | 10 W/m² | - |
* Rain latest hour (hover to see other rain measurements)
** Current wind speed in m/s (hover to see current wind gust speed)